Portada
METAR-TAF:

METAR-TAF

Aeropuertos :

Aeropuerto de Akulivik

Akulivik, Quebec, Canadá

latitud: 60-49N, longitud: 078-09W, altitud: 20 m

Observación

El informe se hizo hace 16 horas y 31 minutos, a las 13:24 UTC
Viento 27 kt del noroeste
Temperatura -22°C
Humedad 70%
Presión 993 hPa
Visibilidad: 0.4 km
Cielo cubierto a una altura de 2600 ft
nieve, Ventisca alta de nieve

METAR: CYKO 241324Z 31027KT 1/4SM SN BLSN OVC026 M22/M26 A2931 RMK SN2SC6 SNW CVR/MUCH LOOSE/LST STFD OBS/NXT OBS 251200UTC SLP928

Hora: 01:55 (05:55 UTC)


TAF: falta

Observaciones y pronósticos meteorológicos de más de 4000 aeropuertos (mensajes METAR y TAF).

Los puntos amarillos y rojos representan las estaciones disponibles.

Ponga el ratón en el punto deseado para ver el nombre de la estación.

Haga clic para ver las observaciones y los pronósticos meteorológicos.

Para cambiar el mapa : haga clic en los botones verdes con una cruz de color negro para hacer un zoom, en el botón verde con un guión para alejar o en las flechas verdes para mapas adyacentes.


METAR-TAF: